Weather in Rosh Pinna

Israel     32°58′10″N   35°32′58″E
temp.,
°C
wind,
m/s
gust,
m/s
humid.,
%
clouds,
%
prec.,
mm/h
press.,
hPa
HPBL,
m
18 october, mon
mon1800:00+18nw23833 0.1 101856
03:00+17nw22853 0.1 101730
06:00+17wnw22825 0.2 101721
09:00+21wnw24600 0.3 1018901
12:00+24wnw44430 0.0 10171614
15:00+24wnw55441 0.0 10151503
18:00+20nw45604 0.0 1016531
21:00+18nw33707 0.0 101896
19 october, tue
tue1900:00+18nw33690 0.0 101841
03:00+17nw22712 0.1 101833
06:00+17nw22750 0.1 101822
09:00+20wnw24583 0.1 1019992
12:00+24wnw45422 0.0 10181754
15:00+24wnw66450 0.0 10171607
18:00+20nw46631 0.0 1018647
21:00+18nw23778 0.0 101991
20 october, wed
wed2000:00+18wnw22813 0.1 101928
03:00+17nw22804 0.1 102027
06:00+17nw117892 0.1 101931
09:00+20ssw12611 0.1 1020772
12:00+23sw334898 0.1 10191808
15:00+23wnw554752 0.1 10181542
18:00+20nw34641 0.0 1019170
21:00+18nw33770 0.0 102054
21 october, thu
thu2100:00+17nw22800 0.0 102022
03:00+16nw22820 0.0 102021
06:00+16nnw11840 0.0 102011
09:00+20e11630 0.0 1021419
12:00+24se12450 0.0 10201303
15:00+26s12360 0.0 10182000
18:00+21nw56520 0.0 1019390
21:00+19nw34620 0.0 101996
22 october, fri
fri2200:00+19nw33630 0.0 101943
03:00+18nw22630 0.0 101820
06:00+18nnw22600 0.0 101813
09:00+22e24360 0.0 1019528
12:00+27se45250 0.0 10181700
15:00+28s23220 0.0 10162139
18:00+22nw46530 0.0 1016237
21:00+19nw346340 0.0 101896